Tracking 28091 objects as of 30-Sep-2023
HD Live streaming from Space Station
objects crossing your sky now

STARLINK-30322

Track STARLINK-30322 now!
10-day predictions
STARLINK-30322 is classified as:


NORAD ID: 57670
Int'l Code: 2023-124H
Perigee: 515.8 km
Apogee: 517.5 km
Inclination: 53.1 °
Period: 94.8 minutes
Semi major axis: 6887 km
RCS: Unknown
Launch date: August 22, 2023
Source: United States (US)
Launch site: AIR FORCE WESTERN TEST RANGE (AFWTR)
Your satellite tracking list
Your tracking list is empty




NASA's NSSDC Master Catalog

Two Line Element Set (TLE):
1 57670U 23124H   23271.25558028 -.00360099  00000-0 -17948-1 0  9996
2 57670  53.0564  25.0915 0001202 100.0267 260.0863 15.18787647  6985
Source of the keplerian elements: AFSPC